STARLINK-32394, 61853

Orbit data source: Space-Track

STARLINK-32394, 61853 is a payload satellite owned by SpaceX/Seattle (US) in LEO that was launched on Thu, 07 Nov 2024 UTC via an FALCON 9 launch vehicle from the Air Force Eastern Test Range (AFETR). Payload-class satellites include a variety of spacecraft equipped with specific instruments for various scientific and technological missions. These include communications satellites like Starlink; space stations such as the ISS; scientific satellites like the Hubble; Earth observation satellites from companies like Planet Labs, Umbra, and HawkEye 360; GPS; miniature CubeSats for education and research; and military/defense satellites.

Loading next visibility...
Identifier
61853, 2024-202J
Orbit
LEO
Country
Flag of USUS
Related business
Manufacturer
SpaceX/Seattle
Mission
Operational spacecraft
Bus & Motor
STARLINK V2M, Unknown motor
Mass
730 kg wet, ~700 kg dry
Launch date (UTC)
2024-11-07 (1 year ago)
Launch vehicle
FALCON 9
Launch site
Air Force Eastern Test Range (AFETR)
Object type
Payload
Rocket body
Debris
Shape & HBR
Unknown shape, 17.7 m
Radar Cross Section
Large (>1 m²)

Expand to show TLE details & history
Last TLE update: 6 hours ago

TLE from 6 hours ago
0 STARLINK-32394
1 61853U 24202J   25300.25436571 -.00000087  00000-0  63486-5 0  9994
2 61853  43.0039 271.2913 0001302 279.2121  80.8583 15.27579868 54929
Epoch: 2025-10-27T06:06Z
TLE epoch observation values (Epoch: 2025-10-27T06:06:17.197Z)
Latitude
-0.00004°
Longitude
143.86076°
Altitude
482.684 km
Speed
7.626 km/s
True Right ascension
18h 05m 09s
True Declination
0° 00' 00"
Sunlit
Object was in daylight at epoch
Visualization orbit readout
Latitude
Unknown
Longitude
Unknown
Altitude
Unknown
Speed
Unknown
Apparent Right ascension
Unknown
Apparent Declination
Unknown
Sunlit
N/A
Visualization observer readout
Local Sidereal Time
07:26:03
Azimuth
Unknown
Elevation
Unknown
Doppler factor
Unknown
Orbital elements
Apogee altitude
485.888 km
Perigee altitude
484.1 km
Semi-major axis
6,863.131 km
Eccentricity
0.00013
Inclination
43.0039°
RAAN
271.2913°
Arg. of periapsis
279.2121°
True anomaly
80.87303°
Mean anomaly
80.8583°
Eccentric anomaly
80.86567°
Mean motion
3.81733 °/min
Orbital period
94.31 mins
BSTAR
0.0000063486
Loading maneuver chart data...
Computing Atmospheric mass density...
Loading historical data...
Loading historical data...
Loading historical data...
Loading historical data...
Loading historical data...
Loading historical data...
Loading historical data...

Documentation

Showing up to 5 results
|